Total_Precipitation_Accumulation
0.06 0.11 0.13 0.15 0.12 0.08 0.06 0.07 0.13 0.14 0.17 0.16 0.09 0.05 0.04 0.06 0.07 0.06 0.08 0.09 0.07 0.07 0.09 0.12 0.16 0.22 0.26 0.26 0.28 0.33 0.46 0.63 0.77 0.87 0.72 0.52 0.40 0.34 0.33 0.37 0.44 0.56 0.67 0.77
0.04 0.07 0.10 0.12 0.13 0.08 0.06 0.05 0.04 0.08 0.11 0.07 0.08 0.09 0.10 0.08 0.08 0.08 0.11 0.10 0.08 0.09 0.12 0.15 0.18 0.19 0.20 0.23 0.25 0.30 0.38 0.46 0.56 0.61 0.51 0.36 0.24 0.19 0.24 0.32 0.40 0.49 0.56 0.63
0.07 0.09 0.08 0.11 0.12 0.08 0.06 0.07 0.08 0.10 0.11 0.09 0.11 0.12 0.11 0.10 0.08 0.07 0.07 0.09 0.09 0.07 0.08 0.10 0.13 0.15 0.15 0.16 0.22 0.34 0.42 0.42 0.48 0.53 0.46 0.33 0.21 0.19 0.23 0.30 0.36 0.40 0.42 0.46
0.15 0.16 0.20 0.12 0.09 0.08 0.08 0.09 0.09 0.11 0.12 0.13 0.16 0.15 0.10 0.10 0.08 0.07 0.07 0.08 0.09 0.09 0.09 0.09 0.10 0.12 0.13 0.15 0.24 0.35 0.42 0.44 0.54 0.60 0.56 0.45 0.37 0.34 0.36 0.39 0.41 0.42 0.41 0.41
0.27 0.25 0.20 0.16 0.14 0.15 0.17 0.17 0.13 0.16 0.17 0.17 0.17 0.13 0.11 0.09 0.06 0.05 0.06 0.06 0.07 0.08 0.09 0.09 0.10 0.12 0.15 0.18 0.25 0.34 0.41 0.48 0.54 0.64 0.66 0.59 0.55 0.52 0.53 0.52 0.50 0.47 0.44 0.44
0.27 0.31 0.31 0.28 0.26 0.21 0.21 0.36 0.25 0.21 0.20 0.16 0.15 0.25 0.22 0.13 0.10 0.07 0.06 0.07 0.08 0.09 0.10 0.10 0.11 0.15 0.21 0.24 0.30 0.38 0.42 0.48 0.54 0.65 0.73 0.68 0.66 0.66 0.64 0.65 0.59 0.55 0.50 0.53
0.32 0.35 0.38 0.36 0.28 0.24 0.44 0.56 0.33 0.24 0.20 0.21 0.22 0.25 0.21 0.16 0.14 0.11 0.09 0.10 0.11 0.12 0.14 0.15 0.18 0.23 0.30 0.32 0.35 0.38 0.42 0.47 0.58 0.74 0.81 0.79 0.82 0.84 0.80 0.75 0.73 0.73 0.67 0.66
0.44 0.56 0.54 0.37 0.32 0.41 0.49 0.41 0.37 0.30 0.22 0.22 0.20 0.16 0.13 0.12 0.13 0.12 0.11 0.11 0.12 0.13 0.16 0.19 0.26 0.32 0.39 0.42 0.41 0.42 0.45 0.53 0.67 0.77 0.71 0.67 0.84 0.92 0.93 0.93 0.89 0.87 0.85 0.80
0.51 0.59 0.45 0.37 0.41 0.43 0.44 0.43 0.35 0.29 0.24 0.19 0.19 0.17 0.14 0.12 0.12 0.12 0.13 0.14 0.14 0.17 0.22 0.26 0.35 0.45 0.55 0.57 0.57 0.56 0.59 0.65 0.74 0.79 0.85 0.93 0.99 1.00 1.03 1.05 1.00 0.93 0.93 0.91
0.48 0.46 0.36 0.36 0.40 0.33 0.33 0.32 0.23 0.17 0.18 0.18 0.17 0.16 0.15 0.14 0.14 0.15 0.16 0.17 0.18 0.21 0.27 0.35 0.45 0.56 0.65 0.68 0.66 0.66 0.66 0.67 0.71 0.79 0.85 1.00 1.16 1.14 1.08 1.06 1.08 1.05 1.01 0.96
0.45 0.44 0.43 0.46 0.47 0.39 0.31 0.24 0.17 0.13 0.16 0.17 0.17 0.17 0.17 0.17 0.18 0.16 0.16 0.16 0.19 0.31 0.41 0.47 0.57 0.68 0.70 0.72 0.76 0.80 0.76 0.71 0.72 0.78 0.87 1.01 1.12 1.18 1.11 1.05 0.91 0.90 0.90 0.90
0.47 0.42 0.43 0.48 0.43 0.37 0.27 0.20 0.17 0.17 0.16 0.15 0.14 0.16 0.16 0.16 0.17 0.16 0.15 0.17 0.23 0.33 0.42 0.46 0.57 0.72 0.78 0.82 0.89 0.95 0.95 0.90 0.87 0.87 0.90 0.94 1.00 0.99 0.86 0.76 0.63 0.58 0.57 0.58
0.32 0.30 0.33 0.36 0.31 0.25 0.22 0.21 0.18 0.19 0.18 0.17 0.17 0.15 0.14 0.14 0.14 0.13 0.15 0.19 0.25 0.30 0.35 0.41 0.50 0.61 0.73 0.87 0.98 1.04 1.03 1.01 0.99 0.92 0.93 0.97 1.01 1.06 1.03 0.87 0.70 0.58 0.47 0.41
0.27 0.24 0.26 0.23 0.21 0.19 0.19 0.18 0.15 0.14 0.15 0.14 0.14 0.14 0.13 0.13 0.13 0.13 0.16 0.18 0.20 0.24 0.31 0.40 0.50 0.57 0.66 0.83 0.96 1.00 1.00 0.99 0.96 0.93 0.91 0.94 0.97 1.00 1.06 1.10 1.00 0.83 0.63 0.48
0.34 0.28 0.28 0.22 0.16 0.16 0.16 0.14 0.13 0.12 0.12 0.12 0.12 0.12 0.12 0.13 0.14 0.16 0.18 0.20 0.24 0.27 0.32 0.42 0.53 0.60 0.72 0.86 0.93 0.95 0.95 0.93 0.89 0.91 0.92 0.91 0.93 0.95 0.96 1.03 1.04 0.98 0.84 0.66
0.29 0.23 0.20 0.20 0.19 0.18 0.17 0.16 0.14 0.12 0.11 0.10 0.10 0.10 0.11 0.12 0.15 0.18 0.20 0.26 0.35 0.38 0.43 0.55 0.61 0.65 0.78 0.91 0.99 0.99 0.97 0.89 0.83 0.83 0.87 0.88 0.90 0.93 0.92 0.99 1.01 1.02 0.92 0.76
0.29 0.21 0.18 0.17 0.17 0.17 0.18 0.18 0.15 0.13 0.12 0.12 0.11 0.10 0.11 0.13 0.17 0.21 0.24 0.27 0.35 0.41 0.50 0.64 0.67 0.67 0.80 0.94 1.04 1.03 0.96 0.87 0.75 0.73 0.76 0.81 0.86 0.89 0.88 0.91 0.92 0.95 0.85 0.65
0.21 0.20 0.18 0.18 0.18 0.19 0.20 0.20 0.18 0.16 0.17 0.17 0.17 0.16 0.19 0.26 0.35 0.41 0.42 0.42 0.46 0.44 0.47 0.58 0.64 0.70 0.79 0.89 0.97 1.00 0.98 0.90 0.78 0.67 0.65 0.72 0.78 0.83 0.86 0.86 0.86 0.86 0.78 0.59
0.15 0.16 0.16 0.19 0.22 0.24 0.23 0.23 0.24 0.24 0.25 0.24 0.24 0.27 0.31 0.39 0.51 0.59 0.59 0.63 0.68 0.66 0.58 0.56 0.61 0.64 0.73 0.79 0.84 0.93 0.90 0.84 0.75 0.59 0.58 0.64 0.72 0.82 0.83 0.78 0.80 0.80 0.71 0.59
0.10 0.10 0.12 0.21 0.32 0.37 0.36 0.35 0.37 0.37 0.35 0.33 0.35 0.39 0.45 0.50 0.60 0.70 0.72 0.70 0.70 0.75 0.70 0.62 0.58 0.61 0.66 0.70 0.73 0.78 0.76 0.77 0.73 0.56 0.53 0.66 0.75 0.81 0.78 0.71 0.73 0.71 0.62 0.57
0.07 0.07 0.08 0.11 0.17 0.24 0.29 0.29 0.31 0.36 0.37 0.42 0.52 0.62 0.70 0.68 0.71 0.83 0.92 0.81 0.66 0.69 0.67 0.60 0.53 0.54 0.57 0.68 0.71 0.73 0.71 0.70 0.73 0.62 0.54 0.63 0.73 0.77 0.74 0.68 0.64 0.58 0.52 0.52
0.06 0.06 0.08 0.11 0.13 0.13 0.13 0.15 0.21 0.31 0.39 0.44 0.51 0.64 0.79 0.86 0.91 0.90 0.82 0.81 0.73 0.72 0.64 0.56 0.50 0.48 0.48 0.55 0.67 0.71 0.70 0.69 0.72 0.69 0.62 0.63 0.70 0.73 0.71 0.63 0.56 0.50 0.47 0.48
0.05 0.04 0.04 0.05 0.07 0.09 0.11 0.13 0.18 0.28 0.37 0.45 0.54 0.73 0.89 0.94 1.03 1.16 0.99 0.73 0.67 0.68 0.63 0.54 0.49 0.46 0.42 0.41 0.55 0.64 0.64 0.68 0.71 0.70 0.66 0.61 0.59 0.60 0.60 0.54 0.49 0.48 0.51 0.54
0.06 0.04 0.04 0.04 0.06 0.09 0.12 0.15 0.19 0.26 0.35 0.42 0.50 0.67 0.89 1.05 1.01 0.92 0.87 0.75 0.65 0.58 0.56 0.51 0.43 0.40 0.39 0.36 0.44 0.53 0.58 0.62 0.60 0.58 0.55 0.51 0.53 0.55 0.52 0.50 0.48 0.51 0.56 0.58
0.07 0.08 0.08 0.09 0.13 0.18 0.25 0.31 0.34 0.39 0.47 0.50 0.50 0.57 0.68 0.91 1.07 0.91 0.72 0.67 0.62 0.53 0.52 0.52 0.44 0.39 0.35 0.33 0.35 0.42 0.47 0.51 0.50 0.49 0.46 0.47 0.49 0.49 0.44 0.43 0.45 0.49 0.54 0.57
0.06 0.06 0.08 0.11 0.17 0.28 0.41 0.53 0.62 0.66 0.75 0.80 0.72 0.66 0.67 0.74 0.85 0.84 0.71 0.61 0.56 0.53 0.49 0.48 0.46 0.41 0.36 0.35 0.33 0.36 0.42 0.48 0.49 0.47 0.43 0.47 0.46 0.43 0.44 0.47 0.44 0.44 0.47 0.47
0.08 0.08 0.10 0.14 0.21 0.32 0.48 0.64 0.77 0.87 0.95 1.04 0.99 0.83 0.77 0.74 0.78 0.78 0.70 0.63 0.60 0.58 0.56 0.53 0.50 0.47 0.44 0.40 0.35 0.34 0.39 0.46 0.49 0.49 0.49 0.51 0.53 0.53 0.50 0.48 0.45 0.42 0.42 0.37